Location: Sungai Dangang
(2.7500°N, 113.8333°E)
Time: 17:56:54
(UTC+00:00)

Aureole 1 Rocket - Pass Details

Date: 16 May 2021
Orbit: 378 x 1372 km, 73.9° (Epoch: 19 June)

Event Time Altitude Azimuth Distance (km) Brightness Sun altitude
Rises 20:47:59 0° 349° (N) 2,972 6.7 -20.9°
Reaches altitude 10° 20:49:59 10° 350° (N) 2,189 6.0 -20.4°
Maximum altitude 20:55:00 83° 78° (ENE) 877 3.8 -19.3°
Drops below altitude 10° 21:01:42 10° 166° (SSE) 2,890 6.4 -17.7°
Sets 21:04:40 0° 166° (SSE) 3,995 7.1 -17.0°
